Weather History for Djanet, Algeria

Change the Weather History Date:

Monday, February 18, 2013

  Actual Average Record
Temperature  
Mean Temperature 56 °F -  
Max Temperature 75 °F 76 °F - ()
Min Temperature 37 °F 52 °F - ()
Degree Days  
Heating Degree Days 9    
Growing Degree Days 6 (Base 50)    
Moisture  
Dew Point 17 °F    
Average Humidity 19    
Maximum Humidity 36    
Minimum Humidity 5    
Precipitation  
Precipitation 0.00 in 0.00 in - ()
Sea Level Pressure  
Sea Level Pressure 30.05 in    
Wind  
Wind Speed 4 mph ()    
Max Wind Speed 12 mph    
Max Gust Speed -    
Visibility 12.2 miles    
Events      
T = Trace of Precipitation, MM = Missing Value Source: Averaged Metar Reports

Daily Weather History Graph

Daily Weather History Graph

Search for Another Location

Airport:

Trip Planner

Search our weather history database for the weather conditions in past years. The results will help you decide how hot, cold, wet, or windy it might be!

Date:

Astronomy

Feb. 18, 2013 Rise Set
Actual Time 6:53 AM CET 6:18 PM CET
Civil Twilight 6:30 AM CET 6:42 PM CET
Nautical Twilight 6:03 AM CET 7:08 PM CET
Astronomical Twilight 5:37 AM CET 7:35 PM CET
Moon 12:10 PM CET (2/18) 1:02 AM CET (2/18)
Length of Visible Light 12h 11m
Length of Day
11h 25m
First Quarter, 56% of the Moon is Illuminated
Feb 18
First Quarter
Feb 25
Full
Mar 4
Last Quarter
Mar 11
New
Mar 19
First Quarter

Hourly Weather History & Observations

Time (CET) Temp. Windchill Dew Point Humidity Pressure Visibility Wind Dir Wind Speed Gust Speed Precip Events Conditions
12:00 AM 50.0 °F - 15.8 °F 26% 30.04 in - East 11.5 mph - N/A   Clear
1:00 AM 49 °F - 15 °F 14%  in 9 mi East 4.6 mph - -  
2:00 AM 48.2 °F - 15.8 °F 27% 30.04 in - Calm Calm - N/A   Clear
3:00 AM 46.4 °F - 15.8 °F 29% 30.04 in - Calm Calm - N/A   Clear
4:00 AM 45 °F - 16 °F 18%  in 9 mi NNW 5.8 mph - -  
4:00 AM 44.6 °F 41.4 °F 15.8 °F 31% 30.04 in - NNW 5.8 mph - N/A   Clear
5:00 AM 41.0 °F 38.0 °F 12.2 °F 31% 30.04 in - North 4.6 mph - N/A   Clear
6:00 AM 41.0 °F 38.0 °F 12.2 °F 31% 30.04 in - NNW 4.6 mph - N/A   Clear
7:00 AM 39 °F - 13 °F 21%  in 12 mi NNE 8.1 mph - -  
7:00 AM 39.2 °F 33.6 °F 12.2 °F 33% 30.06 in - NNE 8.1 mph - N/A   Clear
8:00 AM 41.0 °F - 15.8 °F 36% 30.06 in - Calm Calm - N/A   Clear
9:00 AM 51.8 °F - 21.2 °F 30% 30.06 in - Calm Calm - N/A   Clear
10:00 AM 60 °F - 24 °F 14%  in 19 mi Calm Calm - -  
10:00 AM 60.8 °F - 24.8 °F 25% 30.09 in - Calm Calm - N/A   Clear
11:00 AM 68.0 °F - 23.0 °F 18% 30.09 in - Calm Calm - N/A   Clear
12:00 PM 71.6 °F - 23.0 °F 16% 30.09 in - South 4.6 mph - N/A   Clear
1:00 PM 73 °F - 22 °F 7%  in 25 mi South 9.2 mph - -  
1:00 PM 73.4 °F - 21.2 °F 14% 30.06 in - South 9.2 mph - N/A   Clear
2:00 PM 73.4 °F - 21.2 °F 14% 30.06 in - South 6.9 mph - N/A   Clear
3:00 PM 75.2 °F - 21.2 °F 13% 30.04 in - South 6.9 mph - N/A   Clear
4:00 PM 75 °F - 19 °F 5%  in 25 mi WSW 5.8 mph - -  
4:00 PM 75.2 °F - 19.4 °F 12% 30.04 in - WSW 5.8 mph - N/A   Clear
5:00 PM 75.2 °F - 15.8 °F 11% 30.04 in - Calm Calm - N/A   Clear
6:00 PM 71.6 °F - 19.4 °F 14% 30.04 in - Calm Calm - N/A   Clear
7:00 PM 68 °F - 16 °F 6%  in 12 mi Calm Calm - -  
7:00 PM 68.0 °F - 15.8 °F 13% 30.04 in - Calm Calm - N/A   Clear
8:00 PM 60.8 °F - 12.2 °F 15% 30.04 in - Calm Calm - N/A   Clear
9:00 PM 55.4 °F - 12.2 °F 18% 30.06 in - East 4.6 mph - N/A   Clear
10:00 PM 54 °F - 12 °F 9%  in 12 mi ESE 9.2 mph - -  
10:00 PM 53.6 °F - 12.2 °F 19% 30.06 in - ESE 9.2 mph - N/A   Clear
11:00 PM 53.6 °F - 14.0 °F 21% 30.06 in - Calm Calm - N/A   Clear